Regional Weather Roundup
Issued by NWS

Home | Current Version | Previous Version | Graphics & Text | Print | Product List | Glossary On
Versions: 1 2 3 4 5 6 7 8 9 10 11 12 13 14 15 16 17 18 19 20 21 22 23 24 25 26 27 28 29 30 31 32 33 34 35 36 37 38 39 40 41 42 43 44 45 46 47 48 49 50
026
ASUS43 KTOP 220408
RWRKS

WEATHER ROUNDUP FOR KANSAS
NATIONAL WEATHER SERVICE GOODLAND KS
1000 PM CST SUN JAN 21 2018

NOTE:  "FAIR" INDICATES FEW OR NO CLOUDS BELOW 12,000 FEET WITH NO
SIGNIFICANT WEATHER AND/OR OBSTRUCTIONS TO VISIBILITY.

KSZ001>006-013>018-027>032-041>047-220500-
NORTHWEST KANSAS

CITY           SKY/WX    TMP DP  RH WIND       PRES   REMARKS
GOODLAND       FOG       27  25  92 NW35G52   29.70F VSB 1/4 WCI  10
HAYS           FOG       34  34 100 NW6       29.57F VSB 1/2
HILL CITY      LGT RAIN  33  33 100 N13       29.59R FOG     WCI  24
RUSSELL        FOG       38  38 100 N5        29.55F VSB 1/4
$$

KSZ061>065-074>080-084>089-220500-
SOUTHWEST KANSAS

CITY           SKY/WX    TMP DP  RH WIND       PRES   REMARKS
DODGE CITY     CLOUDY    34  29  82 NW16      29.60S WCI  24
ELKHART        FLURRIES  32  29  90 NW25G37   29.80R WCI  19
GARDEN CITY    CLOUDY    31  27  85 NW28G41   29.64R WCI  17
GREAT BEND     CLOUDY    30  29  96 S6        29.58F FOG
LIBERAL        LGT RAIN  33  27  78 NW25G37   29.75R WCI  20
PRATT          CLEAR     26  24  91 SW9       29.60F
$$

KSZ066>073-081>083-090>101-220500-
SOUTHEAST KANSAS

CITY           SKY/WX    TMP DP  RH WIND       PRES   REMARKS
CHANUTE        CLOUDY    59  55  87 S13       29.55F
COFFEYVILLE    CLOUDY    59  53  80 S14       29.58S
HUTCHINSON     PTCLDY    35  34  96 CALM      29.59R
MEDICINE LODGE   N/A     46  30  53 W7        29.62F
NEWTON         PTCLDY    39  35  86 CALM      29.56F
PARSONS        CLOUDY    59  54  83 S13G20    29.58S
WICHITA INTL   CLOUDY    40  36  86 W3        29.60R
WICHITA JABRA  PTCLDY    40  36  86 NE6       29.57F
WICHITA MCCONL CLOUDY    43  35  75 NW3       29.58S
WINFIELD       MOCLDY    46  33  60 SW5       29.60R
$$

KSZ007>012-019>026-033>040-048>060-102>105-220500-
NORTHEAST KANSAS

CITY           SKY/WX    TMP DP  RH WIND       PRES   REMARKS
CONCORDIA      FOG       38  38 100 SE6       29.57F VSB 1/2
EMPORIA        CLOUDY    43  35  73 NW6       29.57S
LAWRENCE       CLOUDY    47  46  97 CALM      29.54F
MANHATTAN      CLOUDY    42  37  82 W10       29.60F
MARYSVILLE     FOG       39  39 100 N3        29.60R VSB 1/2
OLATHE IND     CLOUDY    56  54  93 S9        29.56F
OLATHE EXE     MOCLDY    55  54  96 S10       29.55F
SALINA         CLOUDY    38  37  97 W7        29.55F
TOPEKA BILLARD MOCLDY    47  42  83 CALM      29.54F THUNDER
TOPEKA FORBES  CLOUDY    46  41  82 N7        29.54F
$$




USA.gov is the U.S. government's official web portal to all federal, state and local government web resources and services.